Tracking 31027 objects as of 19-Jul-2025
HD Live streaming from Space Station
objects crossing your sky now

STARLING 2

Track STARLING 2 now!
10-day predictions


NORAD ID: 57387
Int'l Code: 2023-100B
Perigee: 557.1 km
Apogee: 567.1 km
Inclination: 99.5 °
Period: 95.8 minutes
Semi major axis: 6933 km
RCS: Unknown
Launch date: July 18, 2023
Source: United States (US)
Launch site: Rocket Lab Launch Complex (RLLC)
Your satellite tracking list
STARLINK-3957
Track 1 satellite(s)




NASA's NSSDC Master Catalog

Two Line Element Set (TLE):
1 57387U 23100B   25199.87756505  .00004530  00000-0  33507-3 0  9998
2 57387  99.4822 136.0976 0007237 110.7011 249.4985 15.03867706109754
Source of the keplerian elements: AFSPC